Location: Stockholm
(59.3330°N, 18.0500°E)
Time: 13:09:14
(UTC+01:00)

Envisat - Pass Details

Date: 05 December 2022
Orbit: 763 x 765 km, 98.2° (Epoch: 29 January)

Event Time Altitude Azimuth Distance (km) Brightness Sun altitude
Rises 05:40:35 0° 15° (NNE) 3,250 6.3 -18.8°
Reaches altitude 10° 05:43:03 10° 7° (N) 2,319 5.4 -18.5°
Maximum altitude 05:47:38 35° 303° (WNW) 1,234 3.6 -17.9°
Enters shadow 05:48:37 32° 280° (W) 1,304 3.6 -17.8°
